• Join FlightAware (Why Join?)
  • Login
  • US Flag 
06:28AM EDT


 

Airport Tracker/Info


-or-


 

Live Flight TrackerFlight Track Log ✈ UAL4563 ✈ 27-Apr-2014 ✈ KCLE - KDCA

Flight Track Log - Related Links

Times and Time Zones

All times are in EDT time to prevent confusion due to time zone crossing. See the UAL4563 flight status page for this flight to view local times or setup timezone preferences in your user account.

Time Position Orientation Groundspeed Altitude Reporting Facility
EDT Latitude Longitude Course Direction KTS MPH feet Rate Location/Type
04:59PM 41.4164 -81.8264 86° East 153 176 2,200  Level Cleveland Center
05:00PM 41.4183 -81.7900 86° East 185 213 3,000 1,440 Climbing Cleveland Center
05:00PM 41.4147 -81.7536 98° East 247 284 3,700 1,920 Climbing Cleveland Center
05:01PM 41.3936 -81.7119 124° Southeast 222 255 5,000 1,920 Climbing Cleveland Center
05:01PM 41.3717 -81.6742 128° Southeast 265 305 5,900 1,800 Climbing Cleveland Center
05:02PM 41.3483 -81.6317 126° Southeast 254 292 6,900 1,920 Climbing Cleveland Center
05:03PM 41.2975 -81.5392 126° Southeast 295 339 9,100 1,800 Climbing Cleveland Center
05:04PM 41.2422 -81.4397 126° Southeast 325 374 10,700 1,200 Climbing Cleveland Center
05:05PM 41.1819 -81.3333 127° Southeast 358 412 11,600 1,020 Climbing Cleveland Center
05:06PM 41.1056 -81.1967 127° Southeast 390 449 12,900 1,200 Climbing Cleveland Center
05:07PM 41.0375 -81.0778 127° Southeast 397 457 14,200 1,140 Climbing Cleveland Center
05:08PM 40.9389 -81.0136 154° Southeast 400 460 15,300 1,020 Climbing Cleveland Center
05:09PM 40.8286 -80.9900 171° South 400 460 16,400 1,020 Climbing Cleveland Center
05:10PM 40.7172 -80.9661 171° South 403 464 17,500 960 Climbing Cleveland Center
05:11PM 40.6042 -80.9431 171° South 410 472 18,400 1,020 Climbing Cleveland Center
05:12PM 40.4672 -80.9125 170° South 416 479 19,700 1,080 Climbing Cleveland Center
05:13PM 40.3514 -80.8886 171° South 421 484 20,700 960 Climbing Cleveland Center
05:15PM 40.1158 -80.8378 161° South 430 495 22,800 1,020 Climbing Cleveland Center
05:16PM 40.0017 -80.7919 163° South 441 507 23,900 1,080 Climbing Cleveland Center
05:17PM 39.9122 -80.6375 127° Southeast 452 520 25,100 1,080 Climbing Cleveland Center
05:18PM 39.8472 -80.4997 122° Southeast 450 518 26,200 900 Climbing Cleveland Center
05:19PM 39.7831 -80.3614 121° Southeast 450 518 27,000 360 Climbing Cleveland Center
05:20PM 39.7158 -80.2189 121° Southeast 461 531 27,000  Level Cleveland Center
05:21PM 39.6456 -80.0703 122° Southeast 480 552 27,000  Level Cleveland Center
05:22PM 39.5606 -79.8908 122° Southeast 486 559 27,000  Level Cleveland Center
05:23PM 39.4864 -79.7369 122° Southeast 501 577 27,000 -360 Level Cleveland Center
05:25PM 39.4122 -79.5836 122° Southeast 502 578 26,300 -1,080 Descending Cleveland Center
05:26PM 39.3367 -79.4306 123° Southeast 504 580 24,800 -1,140 Descending Cleveland Center
05:27PM 39.2733 -79.2742 118° Southeast 483 556 24,000 -420 Descending Cleveland Center
05:28PM 39.2483 -79.0819 99° East 482 555 24,000  Level Cleveland Center
05:29PM 39.2283 -78.9108 99° East 481 554 24,000  Level Cleveland Center
05:30PM 39.2058 -78.7336 99° East 479 551 24,000 -900 Level Washington Center
05:31PM 39.1872 -78.5642 98° East 479 551 22,300 -2,460 Descending Washington Center
05:32PM 39.1683 -78.3972 98° East 474 545 19,200 -3,360 Descending Washington Center
05:33PM 39.1322 -78.2433 107° East 462 532 15,800 -2,580 Descending Washington Center
05:34PM 39.0958 -78.0950 107° East 446 513 14,100 -1,740 Descending Washington Center
05:35PM 39.0592 -77.9547 109° East 429 494 12,300 -1,620 Descending Washington Center
05:36PM 39.0261 -77.8175 107° East 405 466 10,900 -1,200 Descending Washington Center
05:37PM 38.9911 -77.6856 109° East 400 460 10,000 -1,080 Descending Washington Center
05:38PM 38.9553 -77.5775 113° Southeast 346 398 8,800 -1,020 Descending Washington Center
05:39PM 38.9214 -77.4833 115° Southeast 331 381 8,000 -900 Descending Washington Center
05:40PM 38.8833 -77.3889 117° Southeast 320 368 7,000 -1,140 Descending Washington Center
05:41PM 38.8431 -77.2975 119° Southeast 300 345 5,800 -1,260 Descending Washington Center
05:42PM 38.7667 -77.2000 135° Southeast 254 292 4,100 -780 Descending Potomac TRACON
05:43PM 38.7333 -77.1333 123° Southeast 210 242 4,000 -600 Descending Potomac TRACON
05:44PM 38.7000 -77.0667 123° Southeast 181 208 2,900 -1,140 Descending Potomac TRACON
05:45PM 38.7500 -77.0333 27° Northeast 170 196 1,700 -900 Descending Potomac TRACON
05:46PM 38.7833 -77.0333 360° North 155 178 1,100 -600 Descending Potomac TRACON
05:47PM 38.8167 -77.0333 360° North 130 150 500 -600 Descending Potomac TRACON
05:49PM 38.8500 -77.0333 North  Level FlightAware Approximate
05:56PM 38.8519 -77.0377 North  Level Estimated
05:57PM 38.8500 -77.0333 North  Level FlightAware Approximate
05:58PM 38.8519 -77.0377 North  Level Estimated
05:59PM 38.8500 -77.0333 North  Level FlightAware Approximate